Flag for Russia Weather past 2 weeks in Sochi, Russia

Now
70 °F

Overcast.


Feels Like: 70 °F
Forecast: 67 / 82 °F
Wind: 6 mph from East

Location: Adler

Current Time: Jul 4, 2015 at 1:39:47 AM

Latest Report: Jul 4, 2015 at 12:30 AM


Visibility: N/A

Pressure: 30.09 "Hg

Humidity: 83%

Dew point: 64 °F

Location of SochiLocation

Historic Weather in Sochi — Graph

°F

Sochi temperature yesterday

Maximum temperature yesterday: 72 °F (at 11:30 AM)
Minimum temperature yesterday: 66 °F (at 12:00 AM)
Average temperature yesterday: 69 °F

Past Weeks' High & Low Weather Summary

 TemperatureHumidityPressure
High84 °F (Jun 19, 2:30 PM)94% (Jun 21, 3:30 AM)30.09 "Hg (Jun 21, 3:30 AM)
Low63 °F (Jun 28, 3:30 AM)47% (Jun 29, 4:30 PM)29.56 "Hg (Jun 19, 3:00 PM)
Average72 °F76%29.84 "Hg
* Reported Midnight between Jun 18 and Jun 19 — Jul 4 12:30 AM, Sochi, Weather by CustomWeather, © 2015

Note: Actual official high and low records may vary slightly from our data, if they occured in-between our weather recording intervals... More about our weather records

Advertising

Sochi weather history for previous 24 hours

 ConditionsComfort  
Time TempWeatherWind HumidityBarometerVisibility
12:30 AM
Sat, Jul 4
70 °FOvercast.6 mph83%30.09 "HgN/A
12:00 AM70 °FOvercast.6 mph83%30.09 "HgN/A
11:30 PM
Fri, Jul 3
68 °FOvercast.3 mph88%30.09 "HgN/A
11:00 PM68 °FOvercast.3 mph88%30.09 "HgN/A
10:30 PM68 °FOvercast.3 mph88%30.09 "HgN/A
10:00 PM68 °FMostly cloudy.3 mph88%30.09 "HgN/A
9:30 PM70 °FOvercast.3 mph88%30.09 "HgN/A
9:00 PM70 °FCloudy.1 mph88%30.07 "Hg6 mi
8:30 PM70 °FCloudy.3 mph83%30.07 "HgN/A
8:00 PM70 °FCloudy.1 mph83%30.07 "HgN/A
7:30 PM70 °FCloudy.3 mph88%30.07 "HgN/A
7:00 PM70 °FSprinkles. Cloudy.1 mph83%30.07 "HgN/A
6:30 PM70 °FSprinkles. Mostly cloudy.3 mph83%30.07 "HgN/A
6:00 PM70 °FMore clouds than sun.1 mph83%30.04 "HgN/A
5:30 PM70 °FMore clouds than sun.3 mph83%30.04 "HgN/A
5:00 PM70 °FCloudy.1 mph83%30.04 "HgN/A
4:30 PM70 °FSprinkles. Cloudy.No wind83%30.04 "HgN/A
4:00 PM72 °FSprinkles. Cloudy.3 mph78%30.04 "HgN/A
3:30 PM72 °FMore clouds than sun.3 mph78%30.04 "HgN/A
3:00 PM72 °FMore clouds than sun.3 mph78%30.04 "HgN/A
2:30 PM72 °FOvercast.3 mph78%30.04 "HgN/A
2:00 PM72 °FOvercast.3 mph78%30.04 "HgN/A
1:30 PM72 °FOvercast.3 mph78%30.04 "HgN/A
1:00 PM72 °FMore clouds than sun.3 mph78%30.04 "HgN/A
12:30 PM72 °FMore clouds than sun.3 mph78%30.04 "HgN/A
12:00 PM72 °FMore clouds than sun.3 mph78%30.04 "HgN/A
11:30 AM72 °FMore clouds than sun.1 mph78%30.04 "HgN/A
11:00 AM70 °FMostly cloudy.1 mph83%30.04 "HgN/A
10:30 AM70 °FMostly cloudy.1 mph83%30.04 "HgN/A
10:00 AM70 °FMostly cloudy.1 mph83%30.04 "HgN/A
9:30 AM70 °FMostly cloudy.3 mph83%30.04 "HgN/A
9:00 AM68 °FOvercast.1 mph88%30.04 "HgN/A
8:30 AM68 °FOvercast.6 mph88%30.01 "HgN/A
8:00 AM68 °FOvercast.6 mph88%30.01 "HgN/A
7:30 AM68 °FOvercast.6 mph88%30.04 "HgN/A
7:00 AM66 °FOvercast.3 mph94%30.01 "HgN/A
6:30 AM68 °FOvercast.3 mph88%30.01 "HgN/A
5:30 AM68 °FOvercast.3 mph88%30.01 "HgN/A
5:00 AM66 °FOvercast.6 mph94%30.01 "HgN/A
4:30 AM66 °FOvercast.6 mph88%30.01 "HgN/A
4:00 AM66 °FOvercast.6 mph88%30.01 "HgN/A
3:30 AM66 °FOvercast.10 mph88%30.01 "HgN/A
3:00 AM66 °FOvercast.8 mph88%30.01 "HgN/A
2:30 AM66 °FOvercast.8 mph88%30.01 "HgN/A
2:00 AM66 °FOvercast.8 mph88%30.01 "HgN/A
1:30 AM66 °FOvercast.8 mph88%30.01 "HgN/A
1:00 AM66 °FOvercast.6 mph94%30.01 "HgN/A
Weather by CustomWeather, © 2015

See weather overviewHow to use our weather pages